Regional Weather Roundup
Issued by NWS

Home | Current Version | Previous Version | Text Only | Print | Product List | Glossary On
Versions: 1 2 3 4 5 6 7 8 9 10 11 12 13 14 15 16 17 18 19 20 21 22 23 24 25 26 27 28 29 30 31 32 33 34 35 36 37 38 39 40 41 42 43 44 45 46 47 48 49 50
000
ASUS44 KOUN 292000
RWROK

WEATHER ROUNDUP FOR OKLAHOMA
NATIONAL WEATHER SERVICE NORMAN OK
300 PM CDT WED JUN 29 2016

NOTE: "FAIR" INDICATES FEW OR NO CLOUDS BELOW 12,000 FEET WITH NO
      SIGNIFICANT WEATHER AND/OR OBSTRUCTIONS TO VISIBILITY.

OKZ001>007-009>012-014-015-017-292100-
NORTHWEST OKLAHOMA AND THE PANHANDLE

CITY           SKY/WX    TMP DP  RH WIND       PRES   REMARKS
GAGE           SUNNY     88  65  46 E8        30.06F HX  90
GUYMON         SUNNY     90  60  36 SW7       30.08F
ENID/WOODRING  PTSUNNY   95  64  36 S6        30.01F HX  97
$$

OKZ016-021>023-033>039-044-045-292100-
SOUTHWEST OKLAHOMA

CITY           SKY/WX    TMP DP  RH WIND       PRES   REMARKS
LAWTON/REGL    SUNNY     94  60  32 SE12      30.01F HX  94
LAWTON/FT SILL CLOUDY    91  67  44 VRB6      30.01F HX  94
FREDERICK      SUNNY     91  67  44 VRB6      30.00F HX  94
CLINTON        MOSUNNY   89  65  44 SW10      30.07F HX  91
HOBART         CLOUDY    86  66  51 S10       30.05F
$$

OKZ018>020-024>031-292100-
CENTRAL OKLAHOMA

CITY           SKY/WX    TMP DP  RH WIND       PRES   REMARKS
OKLAHOMA CITY  PTSUNNY   89  65  44 SE12      30.04F HX  91
OKC/WILEY POST MOSUNNY   92  64  39 S16       30.03F HX  93
STILLWATER     PTSUNNY   92  65  40 S12       30.01F HX  94
GUTHRIE        MOSUNNY   91  65  41 S9        30.02S HX  93
$$

OKZ008-013-054>072-292100-
NORTHEAST OKLAHOMA

CITY           SKY/WX    TMP DP  RH WIND       PRES   REMARKS
TULSA          PTSUNNY   95  56  26 S9        29.99F HX  93
TULSA/JONES    MOSUNNY   94  56  27 SW8       30.01F HX  92
PONCA CITY     SUNNY     90  66  45 S6        30.00F HX  92
BARTLESVILLE   MOSUNNY   94  64  37 S9        30.01F HX  95
MUSKOGEE       MOSUNNY   92  66  42 VRB3      30.03F HX  94
$$

OKZ032-040>043-046>053-073>077-292100-
SOUTH CENTRAL/SOUTHEAST OKLAHOMA

CITY           SKY/WX    TMP DP  RH WIND       PRES   REMARKS
MCALESTER      SUNNY     92  67  43 VRB5      30.04F HX  95
$$




USA.gov is the U.S. government's official web portal to all federal, state and local government web resources and services.